OBJECT F, 57171

Orbit data source: Space-Track

You're viewing an Uncataloged Satellite

Recently launched and/or uncataloged satellites may have evolving metadata. Metadata may include but not limited to: Owner, Maufacturer, Bus, Motor, and Mission.

OBJECT F, 57171 is a satellite in SSO that was launched on Tue, 27 Jun 2023 UTC via a SOYUZ-2-1B launch vehicle from the Vostochny Cosmodrome (VOSTO). Unknown objects in Earth's orbit typically refer to objects detected orbiting the Earth but have not yet been identified or cataloged. These objects could be anything from previously untracked satellites, spent rocket stages, debris from satellite collisions, or even natural meteoroids temporarily captured by Earth's gravity.

Loading next visibility...
Identifier
57171, 2023-091F
Orbit
SSO
Country
Flag of TBDTBD
Related business
None
Manufacturer
Unknown
Mission
Operational Amateur Science
Bus & Motor
Unknown
Mass
Unknown
Launch date (UTC)
2023-06-27 (3 years ago)
Launch vehicle
SOYUZ-2-1B
Launch site
Vostochny Cosmodrome (VOSTO)
Object type
Unknown
Shape & HBR
Box, 0.1 m
Radar Cross Section
0.035 m², Medium (>0.1 m² and < 1m²)

Expand to show TLE details & history
Last TLE update: 7 hours ago

TLE from 7 hours ago
0 OBJECT F
1 57171U 23091F   26162.93397923  .00007795  00000-0  32318-3 0  9996
2 57171  97.5120 224.4896 0012426 127.0044 233.2332 15.24095097163364
Epoch: 2026-06-11T22:24Z
TLE epoch observation values (Epoch: 2026-06-11T22:24:55.805Z)
Latitude
-0.00004°
Longitude
-12.01358°
Altitude
501.716 km
Speed
7.611 km/s
True Right ascension
14h 57m 57s
True Declination
0° 00' 00"
Sunlit
Object was in full shadow at epoch
Visualization orbit readout
Latitude
Unknown
Longitude
Unknown
Altitude
Unknown
Speed
Unknown
Apparent Right ascension
Unknown
Apparent Declination
Unknown
Sunlit
N/A
Visualization observer readout
Local Sidereal Time
15:49:26
Azimuth
Unknown
Elevation
Unknown
Doppler factor
Unknown
Orbital elements
Apogee altitude
499.004 km
Perigee altitude
481.934 km
Semi-major axis
6,868.606 km
Eccentricity
0.00124
Inclination
97.512°
RAAN
224.4896°
Arg. of periapsis
127.0044°
True anomaly
233.11924°
Mean anomaly
233.2332°
Eccentric anomaly
233.17621°
Mean motion
3.81277 °/min
Orbital period
94.42 mins
BSTAR
0.00032318
Loading maneuver chart data...
Computing Atmospheric mass density...
Loading historical data...
Loading historical data...
Loading historical data...
Loading historical data...
Loading historical data...
Loading historical data...
Loading historical data...

Documentation

Showing up to 5 results
|